Location: Ashtead
(51.3000°N, 0.3000°W)
Time: 17:05:03
(UTC+00:00)

CZ-2C R/B - Pass Details

Date: 29 April 2025
Orbit: 781 x 868 km, 98.4° (Epoch: 12 May)

Event Time Altitude Azimuth Distance (km) Brightness Sun altitude
Exits shadow 02:06:39 28° 245° (WSW) 1,500 3.5 -18.5°
Maximum altitude 02:07:42 30° 266° (W) 1,430 3.6 -18.4°
Drops below altitude 10° 02:12:21 10° 327° (NNW) 2,397 5.3 -18.0°
Sets 02:14:57 0° 338° (NNW) 3,320 6.3 -17.8°
